Regional Weather Roundup
Issued by NWS

Home | Current Version | Previous Version | Text Only | Print | Product List | Glossary On
Versions: 1 2 3 4 5 6 7 8 9 10 11 12 13 14 15 16 17 18 19 20 21 22 23 24 25 26 27 28 29 30 31 32 33 34 35 36 37 38 39 40 41 42 43 44 45 46 47 48 49 50
000
ASUS44 KBMX 301310
RWRAL

ALABAMA REGIONAL WEATHER ROUNDUP
NATIONAL WEATHER SERVICE BIRMINGHAM AL
800 AM CDT TUE SEP 30 2014

NOTE: "FAIR" INDICATES FEW OR NO CLOUDS BELOW 12,000 FEET
WITH NO SIGNIFICANT WEATHER AND/OR OBSTRUCTIONS TO VISIBILITY.

THE REMARK "TC" DENOTES TEMPERATURE IN DEGREES CELSIUS.

ALZ001>011-014-016>018-020-301400-
NORTH ALABAMA

CITY           SKY/WX    TMP DP  RH WIND       PRES   REMARKS
MUSCLE SHOALS  SUNNY     62  59  90 CALM      29.99R
HUNTSVILLE     CLOUDY    67  63  87 CALM      29.99R FOG
DECATUR        FOG       64  63  96 SE3       29.99R VSB 1/4
HALEYVILLE     FAIR      61  61 100 CALM      30.01S
GADSDEN        CLOUDY    64  61  88 CALM      29.99S
$$

ALZ012-013-022-023-030>036-040>044-301400-
WEST CENTRAL ALABAMA

CITY           SKY/WX    TMP DP  RH WIND       PRES   REMARKS
TUSCALOOSA     CLOUDY    67  65  93 CALM      29.98R
$$

ALZ015-024>027-033>036-040>044-301400-
CENTRAL ALABAMA

CITY           SKY/WX    TMP DP  RH WIND       PRES   REMARKS
BIRMINGHAM     PTSUNNY   65  63  93 E5        30.00R
MONTGOMERY     CLOUDY    72  66  81 NE5       29.96R
SHELBY CO ARPT SUNNY     68  65  90 CALM      29.98R
MAXWELL AFB    CLOUDY    71  67  87 NE2       29.95S
GREENVILLE     CLOUDY    70  66  87 CALM      29.95R
$$

ALZ019-021-028-029-037-038-045>048-301400-
EAST CENTRAL ALABAMA

CITY           SKY/WX    TMP DP  RH WIND       PRES   REMARKS
ANNISTON       CLOUDY    69  63  81 NE3       29.98S
ALEXANDER CITY CLOUDY    69  65  89 NE3       29.98R
AUBURN         CLOUDY    66  64  94 NE5       30.00R
$$

ALZ051>064-301400-
SOUTHWEST ALABAMA

CITY           SKY/WX    TMP DP  RH WIND       PRES   REMARKS
MOBILE         CLOUDY    70  70 100 NE7       29.93R FOG
BROOKLEY FIELD CLOUDY    72  70  93 NE8       29.94R
EVERGREEN      CLOUDY    71  69  93 N5        29.94R
$$

ALZ049-050-065>069-301400-
SOUTHEAST ALABAMA

CITY           SKY/WX    TMP DP  RH WIND       PRES   REMARKS
DOTHAN         CLOUDY    69  67  93 NE7       29.96R
OZARK          CLOUDY    71  67  87 N7        29.92R
TROY           CLOUDY    69  66  90 NE5       29.95R
EUFAULA        CLOUDY    72  65  78 N3        29.93S
$$


USA.gov is the U.S. government's official web portal to all federal, state and local government web resources and services.